AAL100 KJFK-EGLL

Flight info

Callsign AAL100
Flight time N/A
Altitude 39000
Route BETTE DCT ACK DCT TUSKY N355C JOOPY/M082F400 DCT 49N050W 51N040W 53N030W 54N020W DCT DOGAL DCT BEXET/N0474F410 DCT DEVOL DCT RINUS DCT LIFFY UL975 MALUD Q38 NUGRA
Aircraft B772/H-SDE2E3FGHIJ5LORVWXY/LB1D1

Departure

Time N/A
Airport John F. Kennedy International Airport (KJFK)

Arrival

Time 2026-05-03 23:37
Airport London Heathrow Airport (EGLL)
Time Latitude Longitude Altitude Speed Heading
2026-05-03 20:15 50.81821 -41.16851 41333 ft 519 kts 75°
2026-05-03 20:15 50.83600 -41.05778 41322 ft 519 kts 75°
2026-05-03 20:16 50.85368 -40.94697 41339 ft 519 kts 75°
2026-05-03 20:16 50.87126 -40.83612 41331 ft 519 kts 75°
2026-05-03 20:17 50.88871 -40.72529 41335 ft 519 kts 75°
2026-05-03 20:17 50.90604 -40.61443 41338 ft 518 kts 75°
2026-05-03 20:18 50.92328 -40.50346 41356 ft 518 kts 75°
2026-05-03 20:18 50.94039 -40.39253 41354 ft 518 kts 76°
2026-05-03 20:19 50.95740 -40.28152 41353 ft 518 kts 76°
2026-05-03 20:19 50.97430 -40.17042 41355 ft 518 kts 76°
2026-05-03 20:20 50.99111 -40.05928 41357 ft 518 kts 76°
2026-05-03 20:20 51.01145 -39.94993 41364 ft 516 kts 68°
2026-05-03 20:21 51.03827 -39.84423 41362 ft 516 kts 66°
2026-05-03 20:21 51.06542 -39.73871 41367 ft 516 kts 67°
2026-05-03 20:22 51.09214 -39.63288 41368 ft 516 kts 67°
2026-05-03 20:22 51.11853 -39.52670 41379 ft 516 kts 68°
2026-05-03 20:23 51.14457 -39.42112 41374 ft 516 kts 68°
2026-05-03 20:23 51.17072 -39.31463 41371 ft 516 kts 68°
2026-05-03 20:24 51.19676 -39.20820 41381 ft 516 kts 68°
2026-05-03 20:24 51.22271 -39.10162 41381 ft 515 kts 68°
2026-05-03 20:25 51.24855 -38.99497 41386 ft 515 kts 68°
2026-05-03 20:25 51.27429 -38.88822 41388 ft 515 kts 68°
2026-05-03 20:26 51.29991 -38.78146 41387 ft 515 kts 68°
2026-05-03 20:26 51.32540 -38.67470 41388 ft 514 kts 68°
2026-05-03 20:27 51.35081 -38.56778 41394 ft 514 kts 68°
2026-05-03 20:27 51.37610 -38.46079 41390 ft 514 kts 69°
2026-05-03 20:28 51.40128 -38.35377 41394 ft 514 kts 69°
2026-05-03 20:28 51.42636 -38.24666 41398 ft 513 kts 69°
2026-05-03 20:29 51.45133 -38.13942 41400 ft 513 kts 69°
2026-05-03 20:29 51.47619 -38.03219 41401 ft 513 kts 69°
2026-05-03 20:30 51.50095 -37.92480 41400 ft 513 kts 69°
2026-05-03 20:30 51.52558 -37.81746 41402 ft 513 kts 69°
2026-05-03 20:31 51.55012 -37.70994 41404 ft 513 kts 69°
2026-05-03 20:31 51.57456 -37.60234 41405 ft 513 kts 69°
2026-05-03 20:32 51.59890 -37.49462 41405 ft 513 kts 69°
2026-05-03 20:32 51.62314 -37.38675 41406 ft 513 kts 69°
2026-05-03 20:33 51.64729 -37.27880 41415 ft 513 kts 69°
2026-05-03 20:33 51.67121 -37.17129 41412 ft 513 kts 70°
2026-05-03 20:34 51.69518 -37.06297 41415 ft 513 kts 70°
2026-05-03 20:34 51.71907 -36.95446 41416 ft 514 kts 70°
2026-05-03 20:35 51.74288 -36.84576 41416 ft 514 kts 70°
2026-05-03 20:35 51.76658 -36.73698 41417 ft 514 kts 70°
2026-05-03 20:36 51.79018 -36.62809 41414 ft 514 kts 70°
2026-05-03 20:36 51.81369 -36.51904 41418 ft 514 kts 70°
2026-05-03 20:37 51.83315 -36.42834 41422 ft 514 kts 70°
2026-05-03 20:37 51.85648 -36.31903 41417 ft 514 kts 70°
2026-05-03 20:38 51.87971 -36.20966 41421 ft 514 kts 70°
2026-05-03 20:38 51.90282 -36.10021 41415 ft 514 kts 70°
2026-05-03 20:39 51.92583 -35.99064 41421 ft 514 kts 70°
2026-05-03 20:39 51.94872 -35.88108 41429 ft 513 kts 70°
2026-05-03 20:40 51.97152 -35.77134 41423 ft 513 kts 70°
2026-05-03 20:40 51.99420 -35.66157 41426 ft 513 kts 70°
2026-05-03 20:41 52.01676 -35.55177 41429 ft 513 kts 71°
2026-05-03 20:41 52.03920 -35.44195 41433 ft 513 kts 71°
2026-05-03 20:42 52.06155 -35.33194 41428 ft 513 kts 71°
2026-05-03 20:42 52.08379 -35.22190 41426 ft 512 kts 71°
2026-05-03 20:43 52.10592 -35.11178 41428 ft 512 kts 71°
2026-05-03 20:43 52.12795 -35.00153 41438 ft 512 kts 71°
2026-05-03 20:44 52.14973 -34.89191 41429 ft 512 kts 71°
2026-05-03 20:44 52.17168 -34.78077 41433 ft 512 kts 71°
2026-05-03 20:45 52.19323 -34.67106 41430 ft 512 kts 71°
2026-05-03 20:45 52.21483 -34.56045 41437 ft 512 kts 71°
2026-05-03 20:46 52.23633 -34.44977 41432 ft 512 kts 71°
2026-05-03 20:46 52.25771 -34.33902 41435 ft 512 kts 71°
2026-05-03 20:47 52.27898 -34.22821 41430 ft 511 kts 72°
2026-05-03 20:47 52.30014 -34.11729 41428 ft 511 kts 72°
2026-05-03 20:48 52.32120 -34.00631 41435 ft 511 kts 72°
2026-05-03 20:48 52.34210 -33.89544 41435 ft 510 kts 72°
2026-05-03 20:49 52.36291 -33.78444 41434 ft 510 kts 72°
2026-05-03 20:49 52.38358 -33.67353 41435 ft 510 kts 72°
2026-05-03 20:50 52.40416 -33.56246 41438 ft 509 kts 72°
2026-05-03 20:50 52.42461 -33.45140 41439 ft 509 kts 72°
2026-05-03 20:51 52.44496 -33.34023 41434 ft 509 kts 72°
2026-05-03 20:51 52.46519 -33.22901 41433 ft 509 kts 72°
2026-05-03 20:52 52.48532 -33.11773 41431 ft 509 kts 72°
2026-05-03 20:52 52.50535 -33.00627 41429 ft 509 kts 73°
2026-05-03 20:53 52.52528 -32.89469 41432 ft 509 kts 73°
2026-05-03 20:53 52.54496 -32.78382 41429 ft 509 kts 73°
2026-05-03 20:54 52.56469 -32.67198 41432 ft 509 kts 73°
2026-05-03 20:54 52.59406 -32.50420 41425 ft 509 kts 73°
2026-05-03 20:55 52.61351 -32.39221 41425 ft 509 kts 73°
2026-05-03 20:55 52.63285 -32.28013 41425 ft 509 kts 73°
2026-05-03 20:56 52.65208 -32.16797 41425 ft 509 kts 73°
2026-05-03 20:56 52.67120 -32.05579 41428 ft 509 kts 73°
2026-05-03 20:57 52.69021 -31.94348 41422 ft 509 kts 73°
2026-05-03 20:57 52.70911 -31.83112 41430 ft 508 kts 73°
2026-05-03 20:58 52.72790 -31.71866 41432 ft 508 kts 74°
2026-05-03 20:58 52.74658 -31.60615 41429 ft 508 kts 74°
2026-05-03 20:59 52.76514 -31.49365 41429 ft 508 kts 74°
2026-05-03 20:59 52.78360 -31.38098 41423 ft 508 kts 74°
2026-05-03 21:00 52.79883 -31.28745 41421 ft 508 kts 74°
2026-05-03 21:00 52.82016 -31.15562 41430 ft 508 kts 74°
2026-05-03 21:01 52.83828 -31.04281 41427 ft 508 kts 74°
2026-05-03 21:01 52.85628 -30.92995 41423 ft 507 kts 74°
2026-05-03 21:02 52.87418 -30.81695 41415 ft 507 kts 75°
2026-05-03 21:02 52.89197 -30.70393 41426 ft 507 kts 75°
2026-05-03 21:03 52.90964 -30.59088 41411 ft 507 kts 75°
2026-05-03 21:03 52.92719 -30.47780 41414 ft 507 kts 75°
2026-05-03 21:04 52.94463 -30.36464 41415 ft 507 kts 75°
2026-05-03 21:04 52.96196 -30.25139 41416 ft 507 kts 75°
2026-05-03 21:05 52.97906 -30.13889 41413 ft 506 kts 75°
2026-05-03 21:05 52.99618 -30.02554 41414 ft 506 kts 75°
2026-05-03 21:06 53.01294 -29.91205 41404 ft 506 kts 76°
2026-05-03 21:06 53.02918 -29.79835 41411 ft 506 kts 76°
2026-05-03 21:07 53.04529 -29.68457 41418 ft 505 kts 76°
2026-05-03 21:07 53.06133 -29.57092 41411 ft 505 kts 76°
2026-05-03 21:08 53.07731 -29.45716 41407 ft 505 kts 76°
2026-05-03 21:08 53.09316 -29.34345 41403 ft 505 kts 76°
2026-05-03 21:09 53.10890 -29.22966 41401 ft 504 kts 76°
2026-05-03 21:09 53.12453 -29.11581 41399 ft 504 kts 76°
2026-05-03 21:10 53.14004 -29.00193 41403 ft 504 kts 76°
2026-05-03 21:10 53.15544 -28.88794 41398 ft 504 kts 76°
2026-05-03 21:11 53.17072 -28.77397 41399 ft 504 kts 76°
2026-05-03 21:11 53.18590 -28.65988 41399 ft 504 kts 76°
2026-05-03 21:12 53.20099 -28.54562 41389 ft 504 kts 76°
2026-05-03 21:12 53.21595 -28.43135 41387 ft 504 kts 76°
2026-05-03 21:13 53.23081 -28.31696 41398 ft 504 kts 77°
2026-05-03 21:13 53.24555 -28.20252 41397 ft 504 kts 77°
2026-05-03 21:14 53.26020 -28.08790 41387 ft 504 kts 77°
2026-05-03 21:14 53.27473 -27.97331 41387 ft 504 kts 77°
2026-05-03 21:15 53.28915 -27.85860 41396 ft 504 kts 77°
2026-05-03 21:15 53.30346 -27.74382 41384 ft 504 kts 77°
2026-05-03 21:16 53.31757 -27.62967 41383 ft 505 kts 77°
2026-05-03 21:16 53.33166 -27.51476 41378 ft 504 kts 77°
2026-05-03 21:17 53.34337 -27.41851 41374 ft 504 kts 77°
2026-05-03 21:17 53.35957 -27.28416 41374 ft 504 kts 77°
2026-05-03 21:18 53.37321 -27.16995 41373 ft 504 kts 77°
2026-05-03 21:18 53.38684 -27.05491 41375 ft 503 kts 77°
2026-05-03 21:19 53.40035 -26.93985 41373 ft 503 kts 77°
2026-05-03 21:19 53.41374 -26.82473 41373 ft 503 kts 77°
2026-05-03 21:20 53.42702 -26.70956 41380 ft 503 kts 78°
2026-05-03 21:20 53.44020 -26.59429 41369 ft 503 kts 78°
2026-05-03 21:21 53.45326 -26.47896 41363 ft 503 kts 78°
2026-05-03 21:21 53.46620 -26.36363 41362 ft 503 kts 78°
2026-05-03 21:22 53.47903 -26.24832 41361 ft 503 kts 78°
2026-05-03 21:22 53.49174 -26.13295 41368 ft 502 kts 78°
2026-05-03 21:23 53.50433 -26.01754 41357 ft 502 kts 78°
2026-05-03 21:23 53.51471 -25.92162 41358 ft 502 kts 78°
2026-05-03 21:24 53.52710 -25.80611 41356 ft 502 kts 78°
2026-05-03 21:24 53.53937 -25.69062 41355 ft 502 kts 78°
2026-05-03 21:25 53.55153 -25.57509 41354 ft 502 kts 78°
2026-05-03 21:25 53.56357 -25.45946 41349 ft 502 kts 78°
2026-05-03 21:26 53.57550 -25.34386 41343 ft 501 kts 78°
2026-05-03 21:26 53.58731 -25.22826 41345 ft 501 kts 78°
2026-05-03 21:27 53.59898 -25.11280 41356 ft 501 kts 79°
2026-05-03 21:27 53.61055 -24.99724 41341 ft 500 kts 79°
2026-05-03 21:28 53.62200 -24.88169 41342 ft 500 kts 79°
2026-05-03 21:28 53.63333 -24.76616 41337 ft 500 kts 79°
2026-05-03 21:29 53.64454 -24.65068 41337 ft 500 kts 79°
2026-05-03 21:29 53.65564 -24.53505 41337 ft 500 kts 79°
2026-05-03 21:30 53.66663 -24.41945 41333 ft 500 kts 79°
2026-05-03 21:30 53.67751 -24.30371 41329 ft 500 kts 79°
2026-05-03 21:31 53.68828 -24.18798 41324 ft 500 kts 79°
2026-05-03 21:31 53.69893 -24.07217 41335 ft 500 kts 79°
2026-05-03 21:32 53.70948 -23.95619 41321 ft 500 kts 79°
2026-05-03 21:32 53.71991 -23.84028 41321 ft 499 kts 79°
2026-05-03 21:33 53.73023 -23.72431 41319 ft 499 kts 79°
2026-05-03 21:33 53.74036 -23.60909 41321 ft 499 kts 80°
2026-05-03 21:34 53.75045 -23.49307 41320 ft 499 kts 80°
2026-05-03 21:34 53.76043 -23.37695 41313 ft 499 kts 80°
2026-05-03 21:35 53.77029 -23.26088 41313 ft 499 kts 80°
2026-05-03 21:35 53.78003 -23.14483 41304 ft 499 kts 80°
2026-05-03 21:36 53.78965 -23.02878 41316 ft 498 kts 80°
2026-05-03 21:36 53.79917 -22.91263 41304 ft 498 kts 80°
2026-05-03 21:37 53.80857 -22.79650 41299 ft 498 kts 80°
2026-05-03 21:37 53.81784 -22.68044 41301 ft 498 kts 80°
2026-05-03 21:38 53.82701 -22.56436 41300 ft 498 kts 81°
2026-05-03 21:38 53.83606 -22.44819 41298 ft 498 kts 81°
2026-05-03 21:39 53.84499 -22.33203 41289 ft 498 kts 81°
2026-05-03 21:39 53.85381 -22.21583 41290 ft 497 kts 81°
2026-05-03 21:40 53.86246 -22.10040 41288 ft 497 kts 81°
2026-05-03 21:40 53.87105 -21.98422 41290 ft 497 kts 81°
2026-05-03 21:41 53.87953 -21.86799 41282 ft 497 kts 81°
2026-05-03 21:41 53.88790 -21.75175 41282 ft 497 kts 81°
2026-05-03 21:42 53.89615 -21.63540 41282 ft 497 kts 81°
2026-05-03 21:42 53.90430 -21.51893 41283 ft 497 kts 81°
2026-05-03 21:43 53.91233 -21.40247 41286 ft 497 kts 81°
2026-05-03 21:43 53.92025 -21.28597 41277 ft 497 kts 81°
2026-05-03 21:44 53.92806 -21.16939 41275 ft 497 kts 82°
2026-05-03 21:44 53.93575 -21.05279 41274 ft 497 kts 82°
2026-05-03 21:45 53.94333 -20.93621 41269 ft 497 kts 82°
2026-05-03 21:45 53.95079 -20.81963 41270 ft 496 kts 82°
2026-05-03 21:46 53.95813 -20.70315 41266 ft 496 kts 82°
2026-05-03 21:46 53.96535 -20.58676 41265 ft 495 kts 82°
2026-05-03 21:47 53.97245 -20.47037 41262 ft 495 kts 82°
2026-05-03 21:47 53.97943 -20.35409 41272 ft 495 kts 82°
2026-05-03 21:48 53.98630 -20.23780 41260 ft 495 kts 82°
2026-05-03 21:48 53.99307 -20.12142 41256 ft 495 kts 82°
2026-05-03 21:49 53.99969 -20.00516 41254 ft 495 kts 83°
2026-05-03 21:49 54.00301 -19.88822 41250 ft 495 kts 86°
2026-05-03 21:50 54.00489 -19.77115 41260 ft 496 kts 86°
2026-05-03 21:50 54.00671 -19.65402 41250 ft 496 kts 86°
2026-05-03 21:51 54.00866 -19.53690 41250 ft 495 kts 86°
2026-05-03 21:51 54.01059 -19.41981 41247 ft 495 kts 86°
2026-05-03 21:52 54.01241 -19.30351 41251 ft 495 kts 86°
2026-05-03 21:52 54.01411 -19.18648 41243 ft 495 kts 86°
2026-05-03 21:53 54.01570 -19.06939 41241 ft 495 kts 86°
2026-05-03 21:53 54.01716 -18.95230 41243 ft 495 kts 86°
2026-05-03 21:54 54.01851 -18.83526 41237 ft 495 kts 87°
2026-05-03 21:54 54.01975 -18.71833 41247 ft 495 kts 87°
2026-05-03 21:55 54.02088 -18.60137 41235 ft 494 kts 87°
2026-05-03 21:55 54.02189 -18.48455 41230 ft 494 kts 87°
2026-05-03 21:56 54.02279 -18.36767 41235 ft 494 kts 87°
2026-05-03 21:56 54.02357 -18.25075 41228 ft 494 kts 87°
2026-05-03 21:57 54.02425 -18.13386 41231 ft 494 kts 87°
2026-05-03 21:57 54.02480 -18.01693 41230 ft 494 kts 88°
2026-05-03 21:58 54.02525 -17.89993 41221 ft 494 kts 88°
2026-05-03 21:58 54.02558 -17.78380 41224 ft 494 kts 88°
2026-05-03 21:59 54.02580 -17.66693 41226 ft 494 kts 88°
2026-05-03 21:59 54.02590 -17.55003 41223 ft 495 kts 88°
2026-05-03 22:00 54.02589 -17.43307 41226 ft 494 kts 88°
2026-05-03 22:00 54.02577 -17.31615 41218 ft 494 kts 88°
2026-05-03 22:01 54.02554 -17.19921 41221 ft 494 kts 88°
2026-05-03 22:01 54.02519 -17.08229 41227 ft 494 kts 88°
2026-05-03 22:02 54.02473 -16.96546 41220 ft 494 kts 88°
2026-05-03 22:02 54.02415 -16.84858 41211 ft 494 kts 88°
2026-05-03 22:03 54.02346 -16.73177 41212 ft 494 kts 88°
2026-05-03 22:03 54.02266 -16.61504 41212 ft 494 kts 89°
2026-05-03 22:04 54.02175 -16.49821 41213 ft 494 kts 89°
2026-05-03 22:04 54.02072 -16.38151 41210 ft 494 kts 89°
2026-05-03 22:05 54.01959 -16.26553 41209 ft 494 kts 89°
2026-05-03 22:05 54.01834 -16.14877 41209 ft 494 kts 89°
2026-05-03 22:06 54.01697 -16.03201 41212 ft 494 kts 89°
2026-05-03 22:06 54.01549 -15.91519 41217 ft 494 kts 89°
2026-05-03 22:07 54.01390 -15.79837 41207 ft 495 kts 89°
2026-05-03 22:07 54.01219 -15.68144 41206 ft 495 kts 89°
2026-05-03 22:08 54.01037 -15.56454 41205 ft 495 kts 89°
2026-05-03 22:08 54.00844 -15.44767 41203 ft 495 kts 89°
2026-05-03 22:09 54.00639 -15.33079 41204 ft 495 kts 90°
2026-05-03 22:10 54.00311 -15.15554 41206 ft 494 kts 90°
2026-05-03 22:10 54.00081 -15.03880 41192 ft 494 kts 90°
2026-05-03 22:11 53.99930 -14.92292 41187 ft 493 kts 88°
2026-05-03 22:11 54.00005 -14.80643 41188 ft 493 kts 87°
2026-05-03 22:12 54.00080 -14.68991 41182 ft 493 kts 87°
2026-05-03 22:12 54.00105 -14.57331 41177 ft 493 kts 88°
2026-05-03 22:13 54.00104 -14.45675 41177 ft 493 kts 88°
2026-05-03 22:13 54.00094 -14.35992 41187 ft 493 kts 88°
2026-05-03 22:14 54.00075 -14.24329 41185 ft 494 kts 88°
2026-05-03 22:14 54.00045 -14.12654 41168 ft 494 kts 88°
2026-05-03 22:15 54.00005 -14.00985 41167 ft 494 kts 88°
2026-05-03 22:15 53.99872 -13.89312 41167 ft 494 kts 90°
2026-05-03 22:16 53.99644 -13.77640 41175 ft 494 kts 90°
2026-05-03 22:16 53.99408 -13.65959 41162 ft 494 kts 90°
2026-05-03 22:17 53.99177 -13.54285 41163 ft 494 kts 90°
2026-05-03 22:17 53.98941 -13.42612 41162 ft 494 kts 90°
2026-05-03 22:18 53.98694 -13.30934 41158 ft 494 kts 90°
2026-05-03 22:18 53.98436 -13.19265 41164 ft 494 kts 90°
2026-05-03 22:19 53.98167 -13.07670 41152 ft 494 kts 90°
2026-05-03 22:19 53.97883 -12.95927 41152 ft 494 kts 90°
2026-05-03 22:20 53.97592 -12.84335 41149 ft 494 kts 90°
2026-05-03 22:20 53.97287 -12.72666 41148 ft 494 kts 90°
2026-05-03 22:21 53.96972 -12.61003 41148 ft 495 kts 90°
2026-05-03 22:21 53.96645 -12.49335 41141 ft 495 kts 91°
2026-05-03 22:22 53.96306 -12.37675 41137 ft 494 kts 91°
2026-05-03 22:22 53.95956 -12.26010 41127 ft 494 kts 90°
2026-05-03 22:23 53.95595 -12.14354 41140 ft 494 kts 91°
2026-05-03 22:23 53.95223 -12.02693 41127 ft 494 kts 91°
2026-05-03 22:24 53.94841 -11.91044 41126 ft 494 kts 91°
2026-05-03 22:24 53.94445 -11.79395 41113 ft 494 kts 91°
2026-05-03 22:25 53.94039 -11.67753 41120 ft 494 kts 90°
2026-05-03 22:25 53.93623 -11.56107 41122 ft 494 kts 91°
2026-05-03 22:26 53.93194 -11.44465 41110 ft 494 kts 90°
2026-05-03 22:26 53.92754 -11.32825 41106 ft 494 kts 91°
2026-05-03 22:27 53.92305 -11.21191 41102 ft 494 kts 92°
2026-05-03 22:27 53.91840 -11.09557 41097 ft 494 kts 92°
2026-05-03 22:28 53.91365 -10.97920 41097 ft 494 kts 91°
2026-05-03 22:28 53.90881 -10.86285 41093 ft 495 kts 91°
2026-05-03 22:29 53.90390 -10.74729 41094 ft 495 kts 93°
2026-05-03 22:29 53.89883 -10.63098 41102 ft 495 kts 92°
2026-05-03 22:30 53.89367 -10.51461 41091 ft 495 kts 93°
2026-05-03 22:30 53.88814 -10.39820 41078 ft 496 kts 93°
2026-05-03 22:31 53.87943 -10.28226 41080 ft 496 kts 95°
2026-05-03 22:31 53.86954 -10.16648 41077 ft 497 kts 96°
2026-05-03 22:32 53.85989 -10.05068 41065 ft 496 kts 96°
2026-05-03 22:32 53.85050 -9.93478 41072 ft 497 kts 96°
2026-05-03 22:33 53.84109 -9.81894 41064 ft 497 kts 96°
2026-05-03 22:33 53.83157 -9.70312 41062 ft 497 kts 96°
2026-05-03 22:34 53.82192 -9.58736 41060 ft 497 kts 97°
2026-05-03 22:34 53.81213 -9.47174 41060 ft 496 kts 96°
2026-05-03 22:35 53.80223 -9.35603 41053 ft 497 kts 96°
2026-05-03 22:35 53.79222 -9.24046 41054 ft 497 kts 97°
2026-05-03 22:36 53.78217 -9.12567 41038 ft 497 kts 97°
2026-05-03 22:36 53.77195 -9.01018 41039 ft 497 kts 97°
2026-05-03 22:37 53.76160 -8.89466 41041 ft 497 kts 96°
2026-05-03 22:37 53.75115 -8.77919 41032 ft 497 kts 97°
2026-05-03 22:38 53.74057 -8.66362 41033 ft 498 kts 98°
2026-05-03 22:38 53.72988 -8.54814 41024 ft 498 kts 98°
2026-05-03 22:39 53.71907 -8.43260 41025 ft 498 kts 98°
2026-05-03 22:39 53.70815 -8.31711 41028 ft 498 kts 98°
2026-05-03 22:40 53.69711 -8.20168 41025 ft 498 kts 98°
2026-05-03 22:40 53.68596 -8.08623 41021 ft 498 kts 98°
2026-05-03 22:41 53.67471 -7.97096 41019 ft 498 kts 98°
2026-05-03 22:41 53.66335 -7.85574 41019 ft 498 kts 98°
2026-05-03 22:42 53.65190 -7.74057 41019 ft 498 kts 98°
2026-05-03 22:42 53.64106 -7.62518 41013 ft 498 kts 96°
2026-05-03 22:43 53.63311 -7.50925 41016 ft 498 kts 96°
2026-05-03 22:43 53.62557 -7.39325 41014 ft 498 kts 96°
2026-05-03 22:44 53.61778 -7.27801 41014 ft 498 kts 96°
2026-05-03 22:44 53.60965 -7.16205 41008 ft 499 kts 96°
2026-05-03 22:45 53.60134 -7.04593 41012 ft 500 kts 96°
2026-05-03 22:45 53.59292 -6.92980 41011 ft 500 kts 96°
2026-05-03 22:46 53.58440 -6.81360 41001 ft 500 kts 96°
2026-05-03 22:46 53.57577 -6.69749 41003 ft 501 kts 97°
2026-05-03 22:47 53.56702 -6.58126 41004 ft 501 kts 97°
2026-05-03 22:47 53.55814 -6.46494 41006 ft 501 kts 97°
2026-05-03 22:48 53.54914 -6.34866 40997 ft 501 kts 97°
2026-05-03 22:48 53.54004 -6.23247 40999 ft 501 kts 97°
2026-05-03 22:49 53.53083 -6.11641 41002 ft 502 kts 97°
2026-05-03 22:49 53.52150 -6.00021 40999 ft 502 kts 97°
2026-05-03 22:50 53.51204 -5.88398 41002 ft 502 kts 97°
2026-05-03 22:50 53.50247 -5.76772 40997 ft 502 kts 98°
2026-05-03 22:51 53.49280 -5.65154 40993 ft 502 kts 98°
2026-05-03 22:51 53.48301 -5.53534 40993 ft 502 kts 98°
2026-05-03 22:52 53.47713 -5.41867 40999 ft 502 kts 92°
2026-05-03 22:52 53.47467 -5.30158 40994 ft 502 kts 92°
2026-05-03 22:53 53.47164 -5.18454 40989 ft 502 kts 92°
2026-05-03 22:53 53.46802 -5.06750 40986 ft 502 kts 93°
2026-05-03 22:54 53.46410 -4.95051 40995 ft 502 kts 93°
2026-05-03 22:54 53.46019 -4.83430 40995 ft 502 kts 93°
2026-05-03 22:55 53.45601 -4.71736 40985 ft 502 kts 93°
2026-05-03 22:55 53.45178 -4.60031 40980 ft 502 kts 93°
2026-05-03 22:56 53.44799 -4.48322 40984 ft 503 kts 93°
2026-05-03 22:56 53.44416 -4.36615 40978 ft 503 kts 93°
2026-05-03 22:57 53.43981 -4.24895 40976 ft 503 kts 94°
2026-05-03 22:57 53.43490 -4.13194 40983 ft 503 kts 94°
2026-05-03 22:58 53.42998 -4.01478 40985 ft 504 kts 94°
2026-05-03 22:58 53.42508 -3.89753 40982 ft 504 kts 94°
2026-05-03 22:59 53.42031 -3.78016 40979 ft 505 kts 94°
2026-05-03 22:59 53.41417 -3.66308 40973 ft 505 kts 100°
2026-05-03 23:00 53.39599 -3.54983 40980 ft 503 kts 111°
2026-05-03 23:00 53.36641 -3.44377 40975 ft 503 kts 117°
2026-05-03 23:01 53.33555 -3.33865 40982 ft 503 kts 116°
2026-05-03 23:01 53.31027 -3.25130 40977 ft 503 kts 117°
2026-05-03 23:02 53.27965 -3.14583 40980 ft 503 kts 116°
2026-05-03 23:02 53.24895 -3.04067 40972 ft 503 kts 117°
2026-05-03 23:03 53.21819 -2.93584 40977 ft 503 kts 117°
2026-05-03 23:03 53.18786 -2.83283 40456 ft 490 kts 117°
2026-05-03 23:03 53.17281 -2.78192 39884 ft 488 kts 117°
2026-05-03 23:04 53.15787 -2.73148 39473 ft 483 kts 117°
2026-05-03 23:04 53.14307 -2.68164 39029 ft 479 kts 117°
2026-05-03 23:04 53.12835 -2.63214 38572 ft 475 kts 117°
2026-05-03 23:04 53.11372 -2.58306 38053 ft 471 kts 117°
2026-05-03 23:05 53.09919 -2.53441 37581 ft 466 kts 117°
2026-05-03 23:05 53.08483 -2.48639 37153 ft 461 kts 117°
2026-05-03 23:05 53.07061 -2.43895 36720 ft 456 kts 117°
2026-05-03 23:05 53.05650 -2.39195 36297 ft 452 kts 117°
2026-05-03 23:06 53.04249 -2.34547 35877 ft 446 kts 118°
2026-05-03 23:06 53.02559 -2.30303 35422 ft 438 kts 134°
2026-05-03 23:06 53.00242 -2.27185 34979 ft 421 kts 151°
2026-05-03 23:06 52.97764 -2.24799 34585 ft 404 kts 150°
2026-05-03 23:07 52.95405 -2.22416 34174 ft 390 kts 150°
2026-05-03 23:07 52.93145 -2.20076 33745 ft 378 kts 149°
2026-05-03 23:07 52.90931 -2.17761 33311 ft 375 kts 149°
2026-05-03 23:07 52.88704 -2.15432 32931 ft 387 kts 149°
2026-05-03 23:08 52.86360 -2.12987 32510 ft 405 kts 149°
2026-05-03 23:08 52.83977 -2.10500 32068 ft 404 kts 149°
2026-05-03 23:08 52.81629 -2.08050 31607 ft 390 kts 149°
2026-05-03 23:08 52.79414 -2.05741 31220 ft 373 kts 149°
2026-05-03 23:09 52.77267 -2.03506 30838 ft 359 kts 149°
2026-05-03 23:09 52.75147 -2.01305 30479 ft 363 kts 149°
2026-05-03 23:09 52.72979 -1.99061 30113 ft 374 kts 150°
2026-05-03 23:09 52.70749 -1.96757 29652 ft 380 kts 150°
2026-05-03 23:10 52.68488 -1.94420 29166 ft 377 kts 150°
2026-05-03 23:10 52.66308 -1.92167 28738 ft 373 kts 150°
2026-05-03 23:10 52.64096 -1.89885 28300 ft 369 kts 150°
2026-05-03 23:10 52.61930 -1.87652 27875 ft 365 kts 150°
2026-05-03 23:11 52.59812 -1.85472 27459 ft 362 kts 150°
2026-05-03 23:11 52.57681 -1.83281 27044 ft 360 kts 150°
2026-05-03 23:11 52.55539 -1.81083 26625 ft 357 kts 149°
2026-05-03 23:11 52.53466 -1.78957 26222 ft 355 kts 149°
2026-05-03 23:12 52.51382 -1.76823 25812 ft 353 kts 149°
2026-05-03 23:12 52.49306 -1.74697 25422 ft 350 kts 150°
2026-05-03 23:12 52.47238 -1.72585 25024 ft 349 kts 150°
2026-05-03 23:12 52.45193 -1.70497 24626 ft 345 kts 150°
2026-05-03 23:13 52.43158 -1.68422 24248 ft 344 kts 150°
2026-05-03 23:13 52.41131 -1.66357 23853 ft 343 kts 150°
2026-05-03 23:13 52.39110 -1.64301 23441 ft 341 kts 150°
2026-05-03 23:13 52.37096 -1.62254 22999 ft 340 kts 150°
2026-05-03 23:14 52.35092 -1.60219 22508 ft 339 kts 150°
2026-05-03 23:14 52.33059 -1.58158 21648 ft 349 kts 150°
2026-05-03 23:14 52.30965 -1.56038 20849 ft 357 kts 150°
2026-05-03 23:14 52.28846 -1.53893 20268 ft 360 kts 150°
2026-05-03 23:15 52.26716 -1.51736 20058 ft 361 kts 150°
2026-05-03 23:15 52.24543 -1.49544 19961 ft 377 kts 150°
2026-05-03 23:15 52.22270 -1.47255 19945 ft 389 kts 150°
2026-05-03 23:15 52.20031 -1.44735 19945 ft 394 kts 144°
2026-05-03 23:16 52.17932 -1.41862 19937 ft 393 kts 141°
2026-05-03 23:16 52.15907 -1.38909 19531 ft 389 kts 140°
2026-05-03 23:16 52.13905 -1.35977 18932 ft 385 kts 140°
2026-05-03 23:16 52.11915 -1.33109 18554 ft 377 kts 141°
2026-05-03 23:17 52.09968 -1.30345 18265 ft 367 kts 141°
2026-05-03 23:17 52.08060 -1.27669 17976 ft 357 kts 142°
2026-05-03 23:17 52.06192 -1.25068 17635 ft 351 kts 142°
2026-05-03 23:17 52.04371 -1.22541 17179 ft 348 kts 142°
2026-05-03 23:18 52.02533 -1.19997 16660 ft 346 kts 142°
2026-05-03 23:18 52.00703 -1.17465 16141 ft 345 kts 142°
2026-05-03 23:18 51.98864 -1.14925 15482 ft 351 kts 142°
2026-05-03 23:18 51.96970 -1.12314 15218 ft 362 kts 142°
2026-05-03 23:19 51.95034 -1.09645 15030 ft 369 kts 142°
2026-05-03 23:19 51.93075 -1.06945 14949 ft 368 kts 142°
2026-05-03 23:19 51.91132 -1.04266 14940 ft 366 kts 142°
2026-05-03 23:19 51.89191 -1.01596 14936 ft 365 kts 142°
2026-05-03 23:20 51.87274 -0.98962 14702 ft 358 kts 142°
2026-05-03 23:20 51.85448 -0.96319 14120 ft 347 kts 135°
2026-05-03 23:20 51.84165 -0.93008 13221 ft 348 kts 116°
2026-05-03 23:20 51.83156 -0.89401 12455 ft 354 kts 117°
2026-05-03 23:21 51.82118 -0.85889 11689 ft 339 kts 118°
2026-05-03 23:21 51.81087 -0.82490 10658 ft 336 kts 118°
2026-05-03 23:21 51.80077 -0.79184 10047 ft 313 kts 118°
2026-05-03 23:21 51.79157 -0.76178 9686 ft 283 kts 118°
2026-05-03 23:22 51.77428 -0.70559 8930 ft 279 kts 118°
2026-05-03 23:22 51.76563 -0.67757 8560 ft 278 kts 118°
2026-05-03 23:22 51.75704 -0.64967 8204 ft 278 kts 118°
2026-05-03 23:23 51.74843 -0.62179 7846 ft 277 kts 118°
2026-05-03 23:23 51.73987 -0.59409 7536 ft 275 kts 118°
2026-05-03 23:23 51.73142 -0.56662 7223 ft 270 kts 116°
2026-05-03 23:23 51.72679 -0.53790 6977 ft 262 kts 95°
2026-05-03 23:24 51.72642 -0.50924 6957 ft 249 kts 92°
2026-05-03 23:24 51.72611 -0.48142 6958 ft 246 kts 92°
2026-05-03 23:24 51.72576 -0.45390 6959 ft 246 kts 92°
2026-05-03 23:24 51.72533 -0.42638 6957 ft 244 kts 96°
2026-05-03 23:25 51.72075 -0.40071 6960 ft 237 kts 120°
2026-05-03 23:25 51.71258 -0.37705 6973 ft 246 kts 121°
2026-05-03 23:25 51.70428 -0.35292 6960 ft 245 kts 121°
2026-05-03 23:25 51.69606 -0.32898 6954 ft 243 kts 121°
2026-05-03 23:26 51.68790 -0.30525 6953 ft 241 kts 121°
2026-05-03 23:26 51.67820 -0.28409 6959 ft 236 kts 146°
2026-05-03 23:26 51.66298 -0.27451 6820 ft 237 kts 170°
2026-05-03 23:26 51.64686 -0.26826 6543 ft 240 kts 164°
2026-05-03 23:27 51.63118 -0.25953 6472 ft 237 kts 160°
2026-05-03 23:27 51.61607 -0.25001 6356 ft 236 kts 159°
2026-05-03 23:27 51.60089 -0.24005 6201 ft 236 kts 159°
2026-05-03 23:27 51.58582 -0.22998 6084 ft 232 kts 157°
2026-05-03 23:28 51.57314 -0.21429 6010 ft 235 kts 128°
2026-05-03 23:28 51.56383 -0.19240 6012 ft 241 kts 127°
2026-05-03 23:28 51.55450 -0.17018 5989 ft 239 kts 117°
2026-05-03 23:28 51.55021 -0.14445 5924 ft 241 kts 101°
2026-05-03 23:29 51.54762 -0.11799 5770 ft 238 kts 101°
2026-05-03 23:29 51.54462 -0.09183 5436 ft 235 kts 109°
2026-05-03 23:29 51.53613 -0.06968 5011 ft 235 kts 137°
2026-05-03 23:29 51.52381 -0.05274 4599 ft 231 kts 144°
2026-05-03 23:30 51.50950 -0.04190 4148 ft 231 kts 173°
2026-05-03 23:30 51.49389 -0.04514 3847 ft 227 kts 205°
2026-05-03 23:30 51.48220 -0.06149 3552 ft 226 kts 239°
2026-05-03 23:30 51.47833 -0.08531 3365 ft 217 kts 269°
2026-05-03 23:31 51.47871 -0.10853 3232 ft 199 kts 269°
2026-05-03 23:31 51.47870 -0.12967 3090 ft 180 kts 268°
2026-05-03 23:31 51.47864 -0.14875 3086 ft 162 kts 268°
2026-05-03 23:31 51.47860 -0.16606 3056 ft 150 kts 268°
2026-05-03 23:32 51.47855 -0.18205 2980 ft 139 kts 268°
2026-05-03 23:32 51.47850 -0.19730 2982 ft 136 kts 268°
2026-05-03 23:32 51.47843 -0.21237 2796 ft 133 kts 268°
2026-05-03 23:32 51.47840 -0.22704 2617 ft 131 kts 268°
2026-05-03 23:33 51.47834 -0.24147 2441 ft 126 kts 268°
2026-05-03 23:33 51.47829 -0.25527 2289 ft 123 kts 268°
2026-05-03 23:33 51.47824 -0.26896 2124 ft 123 kts 269°
2026-05-03 23:33 51.47820 -0.28259 1960 ft 122 kts 269°
2026-05-03 23:34 51.47815 -0.29618 1795 ft 122 kts 269°
2026-05-03 23:34 51.47810 -0.30976 1638 ft 121 kts 269°
2026-05-03 23:34 51.47806 -0.32328 1462 ft 121 kts 269°
2026-05-03 23:34 51.47802 -0.33673 1308 ft 120 kts 269°
2026-05-03 23:35 51.47808 -0.35018 1155 ft 121 kts 270°
2026-05-03 23:35 51.47811 -0.36366 998 ft 122 kts 269°
2026-05-03 23:35 51.47815 -0.37715 852 ft 120 kts 268°
2026-05-03 23:35 51.47801 -0.39068 676 ft 122 kts 268°
2026-05-03 23:36 51.47793 -0.40409 509 ft 121 kts 269°
2026-05-03 23:36 51.47775 -0.41749 329 ft 119 kts 268°
2026-05-03 23:36 51.47770 -0.43081 197 ft 121 kts 270°
2026-05-03 23:36 51.47768 -0.44395 96 ft 108 kts 270°
2026-05-03 23:37 51.47763 -0.45401 90 ft 71 kts 270°
2026-05-03 23:37 51.47761 -0.46036 93 ft 52 kts 269°
2026-05-03 23:37 51.47758 -0.46379 96 ft 28 kts 269°
2026-05-03 23:37 51.47713 -0.46682 96 ft 28 kts 246°
2026-05-03 23:38 51.47669 -0.46816 94 ft 8 kts 240°
2026-05-03 23:38 51.47630 -0.46871 95 ft 8 kts 208°
2026-05-03 23:38 51.47624 -0.46877 95 ft 0 kts 207°
2026-05-03 23:39 51.47616 -0.46883 95 ft 7 kts 207°
2026-05-03 23:39 51.47611 -0.46888 94 ft 0 kts 207°
2026-05-03 23:40 51.47607 -0.46891 95 ft 0 kts 207°
2026-05-03 23:41 51.47606 -0.46891 91 ft 1 kts 207°
2026-05-03 23:41 51.47536 -0.46925 95 ft 19 kts 178°
2026-05-03 23:42 51.47417 -0.46888 94 ft 10 kts 167°
2026-05-03 23:42 51.47339 -0.46872 94 ft 16 kts 180°
2026-05-03 23:42 51.47242 -0.46824 92 ft 13 kts 121°
2026-05-03 23:42 51.47238 -0.46676 91 ft 13 kts 87°
2026-05-03 23:43 51.47241 -0.46520 91 ft 8 kts 89°
2026-05-03 23:43 51.47282 -0.46436 93 ft 15 kts 24°
2026-05-03 23:43 51.47317 -0.46410 94 ft 0 kts 24°